Location: Zilina
(0.0000°N, 18.7333°E)
Time: 22:43:37
(UTC+01:00)

Ariane H10+ - Pass Details

Date: 19 February 2019
Orbit: 237 x 8720 km, 6.8° (Epoch: 18 March)

Event Time Altitude Azimuth Distance (km) Brightness Sun altitude
Rises 17:59:20 0° 261° (W) 2,438 8.6 -0.1°
Reaches altitude 10° 18:00:44 10° 261° (W) 1,836 6.3 -0.5°
Maximum altitude 18:04:39 85° 173° (S) 965 2.6 -1.4°
Drops below altitude 10° 18:17:27 10° 84° (E) 5,576 5.7 -4.5°
Enters shadow 18:20:44 - 83° (E) 6,710 6.1 -5.4°
